MST,Max TemperatureF,Mean TemperatureF,Min TemperatureF,Max Dew PointF,MeanDew PointF,Min DewpointF,Max Humidity, Mean Humidity, Min Humidity, Max Sea Level PressureIn, Mean Sea Level PressureIn, Min Sea Level PressureIn, Max VisibilityMiles, Mean VisibilityMiles, Min VisibilityMiles, Max Wind SpeedMPH, Mean Wind SpeedMPH, Max Gust SpeedMPH,PrecipitationIn, CloudCover, Events, WindDirDegrees
2013-1-1,35,22,9,27,20,5,88,68,47,30.32,30.17,30.04,10,5,0,31,11,39,T,7,Fog-Snow,304
2013-1-2,30,19,8,18,10,0,76,61,46,30.48,30.34,30.16,10,10,9,29,13,36,T,3,,315
2013-1-3,34,19,4,15,4,-3,76,60,43,30.42,30.34,30.26,10,10,10,9,2,9,0.00,0,,196
2013-1-4,44,25,6,19,10,1,80,58,36,30.28,30.21,30.04,10,10,10,15,3,18,0.00,0,,254
2013-1-5,40,26,11,22,14,7,77,63,48,30.38,30.30,30.21,10,10,10,17,5,21,0.00,0,,280
2013-1-6,31,19,7,20,12,3,84,72,60,30.20,30.06,29.99,10,10,10,14,2,17,0.00,2,,240
2013-1-7,36,26,15,21,16,11,88,72,56,30.07,29.93,29.75,10,10,10,10,4,17,0.00,2,,243
2013-1-8,42,30,17,23,18,11,75,57,39,30.14,29.96,29.75,10,10,10,28,10,33,0.00,4,,271
2013-1-9,48,32,16,30,21,11,80,61,42,30.12,29.98,29.78,10,10,10,13,4,17,0.00,0,,298
2013-1-10,46,33,19,27,22,16,100,67,34,29.73,29.59,29.50,10,9,2,24,9,29,0.00,3,,310
2013-1-11,19,12,5,16,4,-1,87,77,66,30.21,29.87,29.60,10,5,1,40,24,51,0.01,8,Snow,320
2013-1-12,14,8,2,4,1,-1,87,76,64,30.30,30.23,30.00,10,8,2,32,7,37,0.01,7,Snow,300
2013-1-13,17,9,1,5,2,-4,87,72,56,30.35,30.26,30.06,10,9,2,18,7,22,T,7,Snow,287
2013-1-14,21,10,-2,6,-1,-8,79,61,43,30.35,30.21,29.95,10,10,10,15,4,17,0.00,3,,176
2013-1-15,36,26,15,29,21,8,92,77,61,30.16,30.08,29.94,10,8,2,17,5,20,T,8,Snow,231
2013-1-16,47,33,19,25,20,15,81,59,37,30.38,30.23,30.10,10,10,10,22,8,29,0.00,1,,276
2013-1-17,52,36,20,28,20,15,81,57,32,30.43,30.29,30.06,10,10,10,14,4,17,0.00,0,,218
2013-1-18,56,41,25,22,18,14,58,40,22,30.05,29.98,29.90,10,10,10,14,4,15,0.00,2,,312
2013-1-19,45,32,19,23,19,14,88,60,31,30.26,30.18,30.02,10,10,10,20,7,23,0.00,0,,303
2013-1-20,32,25,17,19,17,14,84,74,63,30.55,30.40,30.16,10,10,5,33,10,40,T,6,Snow,321
2013-1-21,37,26,14,21,16,12,92,72,52,30.36,30.22,30.11,10,10,10,10,3,15,0.00,3,,20
2013-1-22,49,32,14,23,14,9,88,55,21,30.19,30.14,30.07,10,10,10,3,3,5,0.00,0,,279
2013-1-23,32,26,19,20,17,15,91,75,58,30.27,30.17,30.05,10,10,10,9,2,9,0.00,0,,325
2013-1-24,54,37,19,26,21,17,91,60,28,30.21,30.04,29.94,10,10,10,13,5,17,0.00,2,,305
2013-1-25,53,35,16,26,21,14,92,64,35,30.20,30.10,29.97,10,10,10,9,1,12,0.00,1,,294
2013-1-26,56,39,22,29,24,19,88,62,35,29.97,29.86,29.71,10,10,10,10,3,15,0.00,0,,105
2013-1-27,36,31,26,32,29,23,100,88,75,29.87,29.78,29.67,10,5,0,25,8,31,0.35,7,Fog-Snow,325
2013-1-28,29,19,8,27,21,7,100,84,67,29.91,29.84,29.76,10,6,1,14,5,22,0.09,7,Snow,297
2013-1-29,25,11,-3,21,9,-7,86,73,59,30.32,29.99,29.80,10,6,0,32,11,36,0.01,6,Snow,303
2013-1-30,34,16,-3,29,19,-6,96,80,64,30.15,29.92,29.77,10,3,0,25,9,30,0.20,8,Fog-Snow,317
2013-1-31,31,19,6,24,9,1,92,83,73,30.34,30.15,29.94,10,4,1,16,4,28,0.26,8,Snow,133